Location: Copper Breaks State Park
(34.1132°N, 99.7492°W)
Time: 22:31:05
(UTC-05:00)

SL-16 R/B - Visible Passes

Search period start: 28 April 2017 00:00
Search period end: 08 May 2017 00:00
Orbit: 984 x 1007 km, 99.3° (Epoch: 27 April)

Date Brightness Start Highest point End Pass type
(mag) Time Alt. Az. Time Alt. Az. Time Alt. Az.
28 Apr 2.7 03:53:54 61° ESE 03:54:35 65° ENE 04:00:42 10° N visible
28 Apr 4.0 05:39:00 16° W 05:39:00 16° W 05:42:09 10° WNW visible
29 Apr 4.8 02:39:58 13° E 02:42:26 16° ENE 02:46:01 10° NNE visible
29 Apr 2.4 04:25:02 69° SW 04:25:22 70° WSW 04:31:33 10° NNW visible
30 Apr 4.1 03:11:06 25° E 03:12:54 29° ENE 03:18:04 10° N visible
30 Apr 3.0 04:56:10 37° W 04:56:18 38° W 05:01:58 10° NNW visible
01 May 3.1 03:42:14 45° ESE 03:43:30 53° ENE 03:49:27 10° N visible
01 May 3.7 05:27:19 20° W 05:27:21 20° W 05:31:43 10° NW visible
02 May 5.0 02:28:55 10° E 02:31:28 13° ENE 02:34:02 10° NE visible
02 May 2.4 04:13:22 68° S 04:14:14 86° WSW 04:20:26 10° NNW visible
03 May 4.4 02:59:26 19° E 03:01:52 24° ENE 03:06:36 10° NNE visible
03 May 2.7 04:44:31 45° WSW 04:45:07 47° W 04:51:02 10° NNW visible
04 May 3.5 03:30:35 34° ESE 03:32:25 42° ENE 03:38:10 10° N visible
04 May 3.5 05:15:39 25° WSW 05:16:07 25° W 05:21:05 10° NW visible
05 May 2.5 04:01:43 56° SE 04:03:06 78° ENE 04:09:17 10° N visible
05 May 4.1 05:46:48 12° W 05:47:15 13° W 05:49:47 10° WNW visible
06 May 4.7 02:47:48 13° E 02:50:52 19° ENE 02:55:01 10° NNE visible
06 May 2.5 04:32:53 51° SW 04:33:56 58° WSW 04:40:01 10° NNW visible
07 May 3.8 03:18:56 26° ESE 03:21:22 34° ENE 03:26:49 10° N visible
07 May 3.2 05:04:02 30° WSW 05:04:53 31° W 05:10:17 10° NW visible
